Retour au catalogue

COSMOS 1818 COOLANT

ActifLEO
NORAD 36941·DEBRIS·🇷🇺 Russia

Lancé Feb 1, 1987 depuis Baikonur Cosmodrome

Loading…

Prochains Passages (prochaines 24 heures)

TLE

PériméSource: Space-Track

Époque: Aug 30, 2026, 11:04 UTC

1 36941U 87011V   26242.46164042  .00000572  00000-0  20969-3 0  9996
2 36941  65.0025 307.9398 0020415 280.0408  79.8378 14.40831434354259

Suivez COSMOS 1818 COOLANT en temps réel avec AllMySat

Download on the App Store